Flag for Germany Weather past 2 weeks in Nuremberg, Bavaria, Germany

Now
84 °F

Sunny.


Feels Like: 83 °F
Forecast: 64 / 88 °F
Wind: 6 mph from North

Location: Nuernberg

Current Time: Jul 1, 2015 at 2:22:44 PM

Latest Report: Jul 1, 2015 at 1:50 PM


Visibility: 10 mi

Pressure: 30.12 "Hg

Humidity: 35%

Dew point: 54 °F

Location of NurembergLocation

Historic Weather in Nuremberg — Graph

°F

Nuremberg temperature yesterday

Maximum temperature yesterday: 84 °F (at 4:50 PM)
Minimum temperature yesterday: 57 °F (at 5:20 AM)
Average temperature yesterday: 70 °F

Past Weeks' High & Low Weather Summary

 TemperatureHumidityPressure
High84 °F (Jun 30, 4:50 PM)100% (Jun 22, 4:20 AM)30.24 "Hg (Jun 22, 4:20 AM)
Low45 °F (Jun 25, 5:20 AM)20% (Jun 30, 4:20 PM)29.71 "Hg (Jun 23, 12:20 AM)
Average61 °F69%30.09 "Hg
* Reported Jun 16 1:20 PM — Jul 1 1:20 PM, Nuremberg, Weather by CustomWeather, © 2015

Note: Actual official high and low records may vary slightly from our data, if they occured in-between our weather recording intervals... More about our weather records

Advertising

Nuremberg weather history for previous 24 hours

 ConditionsComfort  
Time TempWeatherWind HumidityBarometerVisibility
1:20 PM
Wed, Jul 1
84 °FPassing clouds.7 mph40%30.15 "HgN/A
12:50 PM82 °FPassing clouds.6 mph42%30.15 "HgN/A
12:20 PM82 °FSunny.6 mph42%30.15 "Hg10 mi
11:50 AM82 °FSunny.5 mph45%30.15 "Hg10 mi
11:20 AM81 °FSunny.5 mph51%30.15 "Hg10 mi
10:50 AM79 °FPassing clouds.5 mph51%30.15 "HgN/A
10:20 AM77 °FPassing clouds.3 mph54%30.15 "HgN/A
9:50 AM75 °FPassing clouds.6 mph54%30.15 "HgN/A
9:20 AM73 °FPassing clouds.6 mph57%30.15 "HgN/A
8:50 AM72 °FSunny.6 mph61%30.15 "Hg10 mi
8:20 AM72 °FPassing clouds.7 mph57%30.15 "HgN/A
7:50 AM70 °FPassing clouds.6 mph64%30.15 "HgN/A
7:20 AM66 °FPassing clouds.3 mph68%30.15 "HgN/A
6:50 AM63 °FSunny.1 mph83%30.15 "Hg10 mi
6:20 AM59 °FSunny.1 mph82%30.15 "Hg10 mi
5:50 AM59 °FClear.1 mph88%30.15 "Hg10 mi
5:20 AM59 °FClear.1 mph82%30.15 "Hg10 mi
4:50 AM59 °FClear.1 mph88%30.15 "Hg10 mi
4:20 AM59 °FClear.1 mph82%30.15 "Hg10 mi
3:50 AM59 °FClear.1 mph82%30.15 "Hg10 mi
3:20 AM61 °FClear.1 mph83%30.15 "Hg10 mi
2:50 AM63 °FClear.2 mph77%30.15 "Hg10 mi
2:20 AM64 °FClear.7 mph73%30.15 "Hg10 mi
1:50 AM64 °FPassing clouds.6 mph68%30.15 "HgN/A
1:20 AM66 °FPassing clouds.6 mph64%30.15 "HgN/A
12:50 AM68 °FClear.6 mph60%30.15 "Hg10 mi
12:20 AM68 °FPassing clouds.6 mph60%30.15 "HgN/A
11:50 PM
Tue, Jun 30
68 °FClear.5 mph60%30.15 "Hg10 mi
11:20 PM70 °FClear.5 mph53%30.15 "Hg10 mi
10:50 PM70 °FClear.2 mph53%30.15 "Hg10 mi
10:20 PM70 °FSunny.2 mph50%30.12 "Hg10 mi
9:50 PM70 °FPassing clouds.3 mph50%30.12 "HgN/A
9:20 PM73 °FSunny.2 mph41%30.12 "Hg10 mi
8:50 PM75 °FSunny.1 mph41%30.12 "Hg10 mi
8:20 PM79 °FSunny.2 mph32%30.12 "Hg10 mi
7:50 PM81 °FPassing clouds.3 mph28%30.12 "HgN/A
6:50 PM82 °FSunny.6 mph25%30.09 "Hg10 mi
6:20 PM82 °FSunny.3 mph26%30.12 "Hg10 mi
5:50 PM82 °FPassing clouds.6 mph25%30.12 "HgN/A
4:50 PM84 °FPassing clouds.7 mph22%30.12 "HgN/A
4:20 PM82 °FSunny.6 mph20%30.12 "Hg10 mi
3:50 PM82 °FPassing clouds.8 mph23%30.12 "HgN/A
2:50 PM82 °FPassing clouds.8 mph25%30.15 "HgN/A
2:20 PM81 °FPassing clouds.6 mph28%30.15 "HgN/A
Weather by CustomWeather, © 2015

See weather overviewHow to use our weather pages